Flag for U.S.A. Weather past 2 weeks in Fairbanks, Alaska, U.S.A.

Now
43 °F

Mostly cloudy.


Feels Like: 35 °F
Forecast: 23 / 50 °F
Wind: 17 mph from Southwest

Location: Wainwright U. S. Army Airfield

Current Time: Apr 21, 2015 at 4:32:38 PM

Latest Report: Apr 21, 2015 at 3:55 PM


Visibility: 25 mi

Pressure: 29.85 "Hg

Humidity: 34%

Dew point: 16 °F

Location of FairbanksLocation

Historic Weather in Fairbanks — Graph

°F

Fairbanks temperature yesterday

Maximum temperature yesterday: 52 °F (at 1:55 PM)
Minimum temperature yesterday: 34 °F (at 6:55 AM)
Average temperature yesterday: 43 °F

Past Weeks' High & Low Weather Summary

 TemperatureHumidityPressure
High57 °F (Apr 19, 12:56 PM)96% (Apr 12, 4:56 AM)29.87 "Hg (Apr 12, 4:56 AM)
Low19 °F (Apr 14, 6:55 AM)22% (Apr 20, 3:55 PM)28.99 "Hg (Apr 10, 5:55 PM)
Average38 °F53%29.43 "Hg
* Reported Apr 6 2:55 PM — Apr 21 2:55 PM, Fairbanks, Weather by CustomWeather, © 2015

Note: Actual official high and low records may vary slightly from our data, if they occured in-between our weather recording intervals... More about our weather records

Advertising

Fairbanks weather history for previous 24 hours

 ConditionsComfort  
Time TempWeatherWind HumidityBarometerVisibility
2:55 PM
Tue, Apr 21
43 °FMostly cloudy.14 mph36%29.85 "Hg25 mi
1:55 PM41 °FPartly sunny.14 mph36%29.84 "Hg13 mi
12:55 PM43 °FBroken clouds.12 mph36%29.83 "Hg13 mi
11:55 AM39 °FScattered clouds.15 mph39%29.82 "Hg13 mi
10:55 AM37 °FScattered clouds.12 mph45%29.82 "Hg13 mi
9:55 AM36 °FBroken clouds.14 mph48%29.80 "Hg13 mi
8:55 AM34 °FPartly sunny.12 mph51%29.80 "Hg13 mi
7:55 AM32 °FBroken clouds.9 mph55%29.78 "Hg13 mi
6:55 AM30 °FScattered clouds.9 mph64%29.77 "Hg13 mi
5:56 AM31 °FMostly cloudy.10 mph61%29.76 "Hg10 mi
4:56 AM30 °FMostly cloudy.10 mph66%29.75 "Hg10 mi
3:56 AM31 °FOvercast.9 mph67%29.73 "Hg10 mi
2:56 AM32 °FOvercast.12 mph66%29.71 "Hg10 mi
1:56 AM34 °FMostly cloudy.12 mph70%29.70 "Hg10 mi
12:56 AM35 °FMostly cloudy.16 mph70%29.67 "Hg10 mi
11:56 PM
Mon, Apr 20
35 °FLight snow. Mostly cloudy.18 mph75%29.65 "Hg9 mi
10:56 PM37 °FOvercast.21 mph70%29.64 "Hg10 mi
9:56 PM38 °FOvercast.17 mph70%29.61 "Hg10 mi
9:55 PM37 °FCloudy.16 mph70%29.61 "Hg25 mi
8:55 PM41 °FCloudy.13 mph61%29.57 "Hg25 mi
7:55 PM46 °FCloudy.13 mph50%29.57 "Hg25 mi
6:55 PM46 °FBroken clouds.15 mph50%29.55 "Hg25 mi
5:55 PM52 °FBroken clouds.12 mph35%29.53 "Hg25 mi
4:55 PM52 °FBroken clouds.12 mph22%29.52 "Hg25 mi
Weather by CustomWeather, © 2015

See weather overviewHow to use our weather pages